Location: Al Mulaqqa?ah
(24.1833°N, 32.8833°E)
Time: 20:17:11
(UTC+00:00)

YAOGAN 1 - Visible Passes

Search period start: 24 January 2022 00:00
Search period end: 03 February 2022 00:00
Orbit: 618 x 620 km, 97.9° (Epoch: 24 January)

Date Brightness Start Highest point End Pass type
(mag) Time Alt. Az. Time Alt. Az. Time Alt. Az.
24 Jan 4.2 15:52:46 10° ESE 15:55:04 14° ENE 15:57:20 10° NE visible
24 Jan 4.4 17:27:00 10° SSW 17:30:48 31° W 17:34:38 10° NW visible
25 Jan 3.6 16:08:29 10° SE 16:11:53 23° ENE 16:15:16 10° NNE visible
25 Jan 5.2 17:44:46 10° SW 17:47:48 19° W 17:50:51 10° NW visible
26 Jan 3.0 16:24:45 10° SE 16:28:44 37° ENE 16:32:43 10° N visible
26 Jan 5.8 18:03:35 10° WSW 18:04:50 11° W 18:06:05 10° WNW visible
27 Jan 2.5 16:41:22 10° SSE 16:45:37 64° ENE 16:49:54 10° N visible
28 Jan 2.7 16:58:14 10° S 17:02:32 75° WSW 17:06:51 10° NNW visible
29 Jan 3.7 17:15:23 10° S 17:19:29 43° W 17:23:36 10° NNW visible
30 Jan 4.0 15:57:55 10° ESE 16:00:39 17° ENE 16:03:24 10° NNE visible
30 Jan 4.7 17:32:51 10° SSW 17:36:28 26° W 17:40:04 10° NW visible
31 Jan 3.4 16:13:52 10° SE 16:17:29 27° ENE 16:21:06 10° NNE visible
31 Jan 5.4 17:50:50 10° SW 17:53:28 16° W 17:56:06 10° WNW visible
01 Feb 2.8 16:30:15 10° SSE 16:34:20 44° ENE 16:38:27 10° N visible
02 Feb 2.4 16:46:57 10° SSE 16:51:14 76° ENE 16:55:33 10° N visible
